Weather History for KAUH - March, 2013

Change the Weather History Date:

Friday, March 15, 2013

  Actual Average Record
Temperature  
Mean Temperature 58 °F -  
Max Temperature 72 °F 49 °F 83 °F (2015)
Min Temperature 43 °F 26 °F 8 °F (1975)
Degree Days  
Heating Degree Days 8    
Growing Degree Days 8 (Base 50)    
Moisture  
Dew Point 41 °F    
Average Humidity 62    
Maximum Humidity 85    
Minimum Humidity 33    
Precipitation  
Precipitation 0.00 in - - ()
Sea Level Pressure  
Sea Level Pressure 29.83 in    
Wind  
Wind Speed 9 mph (SSW)    
Max Wind Speed 20 mph    
Max Gust Speed 25 mph    
Visibility 10 miles    
Events      
Averages and records for this station are not official NWS values.
T = Trace of Precipitation, MM = Missing Value Source: NWS Daily Summary

Daily Weather History Graph

Daily Weather History Graph

Search for Another Location

Airport or City:

Trip Planner

Search our weather history database for the weather conditions in past years. The results will help you decide how hot, cold, wet, or windy it might be!

Date:

Astronomy

Mar. 15, 2013 Rise Set
Actual Time 7:43 AM CDT 7:39 PM CDT
Civil Twilight 7:15 AM CDT 8:06 PM CDT
Nautical Twilight 6:43 AM CDT 8:38 PM CDT
Astronomical Twilight 6:11 AM CDT 9:10 PM CDT
Moon 9:32 AM CDT (3/15) 11:56 PM CDT (3/15)
Length of Visible Light 12h 50m
Length of Day
11h 55m
Waxing Crescent, 15% of the Moon is Illuminated
Mar 15
Waxing Crescent
Mar 19
First Quarter
Mar 27
Full
Apr 2
Last Quarter
Apr 10
New

Hourly Weather History & Observations

Time (CDT) Temp. Windchill Dew Point Humidity Pressure Visibility Wind Dir Wind Speed Gust Speed Precip Events Conditions
12:15 AM 46.6 °F - 39.4 °F 76% 30.05 in 10.0 mi South 5.8 mph - N/A   Clear
12:35 AM 47.3 °F - 37.9 °F 70% 30.04 in 10.0 mi South 4.6 mph - N/A   Clear
12:55 AM 46.8 °F - 37.6 °F 70% 30.03 in 10.0 mi South 5.8 mph - N/A   Clear
1:15 AM 46.4 °F 42.9 °F 37.0 °F 70% 30.02 in 10.0 mi South 6.9 mph - N/A   Clear
1:35 AM 47.1 °F - 37.2 °F 68% 30.01 in 10.0 mi South 9.2 mph - N/A   Clear
1:55 AM 48.2 °F - 37.0 °F 65% 30.00 in 10.0 mi South 10.4 mph - N/A   Clear
2:15 AM 48.2 °F - 36.9 °F 65% 29.99 in 10.0 mi South 10.4 mph - N/A   Clear
2:35 AM 47.3 °F - 36.7 °F 67% 29.98 in 10.0 mi South 10.4 mph - N/A   Clear
2:55 AM 46.0 °F 41.9 °F 36.5 °F 69% 29.97 in 10.0 mi South 8.1 mph - N/A   Clear
3:15 AM 45.7 °F 40.6 °F 36.5 °F 70% 29.96 in 10.0 mi SSW 10.4 mph - N/A   Clear
3:35 AM 46.8 °F - 36.1 °F 67% 29.95 in 10.0 mi SSW 12.7 mph - N/A   Clear
4:15 AM 46.2 °F 40.1 °F 36.0 °F 67% 29.93 in 10.0 mi SSW 13.8 mph - N/A   Clear
4:35 AM 45.3 °F 39.7 °F 36.0 °F 70% 29.91 in 10.0 mi SSW 11.5 mph - N/A   Clear
4:55 AM 44.2 °F 38.0 °F 35.8 °F 72% 29.91 in 10.0 mi SSW 12.7 mph - N/A   Clear
5:15 AM 45.9 °F 39.7 °F 35.6 °F 67% 29.89 in 10.0 mi SSW 13.8 mph - N/A   Clear
5:35 AM 45.9 °F 40.4 °F 35.8 °F 68% 29.87 in 10.0 mi SSW 11.5 mph - N/A   Clear
5:55 AM 45.7 °F 39.8 °F 36.3 °F 70% 29.87 in 10.0 mi SSW 12.7 mph - N/A   Clear
6:15 AM 45.1 °F 39.5 °F 36.5 °F 72% 29.86 in 10.0 mi SSW 11.5 mph - N/A   Clear
6:35 AM 45.7 °F 40.6 °F 37.0 °F 72% 29.86 in 10.0 mi SSW 10.4 mph - N/A   Clear
6:55 AM 45.7 °F 40.6 °F 37.0 °F 72% 29.84 in 10.0 mi SW 10.4 mph - N/A   Clear
7:15 AM 43.7 °F 37.7 °F 36.9 °F 77% 29.84 in 10.0 mi SW 11.5 mph - N/A   Clear
7:35 AM 43.2 °F 36.2 °F 37.0 °F 79% 29.83 in 10.0 mi SW 13.8 mph - N/A   Clear
7:55 AM 43.2 °F 37.9 °F 37.0 °F 79% 29.82 in 10.0 mi SW 9.2 mph - N/A   Clear
8:15 AM 44.1 °F 38.6 °F 37.6 °F 78% 29.82 in 10.0 mi WSW 10.4 mph - N/A   Clear
8:35 AM 45.1 °F 39.1 °F 38.3 °F 77% 29.82 in 10.0 mi WSW 12.7 mph - N/A   Clear
8:55 AM 45.7 °F 39.8 °F 38.5 °F 76% 29.82 in 10.0 mi WSW 12.7 mph - N/A   Clear
9:15 AM 46.9 °F - 39.4 °F 75% 29.81 in 10.0 mi West 8.1 mph - N/A   Clear
9:35 AM 50.2 °F - 39.7 °F 67% 29.81 in 10.0 mi West 10.4 mph - N/A   Clear
10:55 AM 59.2 °F - 39.7 °F 49% 29.80 in 10.0 mi WNW 9.2 mph - N/A   Clear
11:15 AM 61.0 °F - 39.9 °F 46% 29.79 in 10.0 mi West 6.9 mph - N/A   Clear
11:35 AM 63.0 °F - 40.1 °F 43% 29.79 in 10.0 mi WNW 5.8 mph - N/A   Clear
11:55 AM 65.1 °F - 40.5 °F 40% 29.78 in 10.0 mi NW 3.5 mph - N/A   Clear
12:15 PM 66.7 °F - 40.1 °F 38% 29.77 in 10.0 mi North 3.5 mph - N/A   Clear
12:35 PM 68.4 °F - 40.6 °F 36% 29.78 in 10.0 mi NNW 3.5 mph - N/A   Clear
12:55 PM 68.4 °F - 40.5 °F 36% 29.78 in 10.0 mi Calm Calm - N/A   Clear
1:15 PM 68.2 °F - 39.7 °F 35% 29.78 in 10.0 mi Calm Calm - N/A   Clear
1:35 PM 68.9 °F - 40.1 °F 35% 29.77 in 10.0 mi Calm Calm - N/A   Clear
1:55 PM 69.1 °F - 40.1 °F 35% 29.76 in 10.0 mi Calm Calm - N/A   Clear
2:15 PM 69.4 °F - 40.5 °F 35% 29.75 in 10.0 mi Calm Calm - N/A   Clear
2:35 PM 70.0 °F - 41.2 °F 35% 29.74 in 10.0 mi ENE 4.6 mph - N/A   Clear
2:55 PM 69.3 °F - 41.2 °F 36% 29.72 in 10.0 mi NE 3.5 mph - N/A   Clear
3:15 PM 70.5 °F - 42.4 °F 36% 29.72 in 10.0 mi East 3.5 mph - N/A   Clear
3:35 PM 70.7 °F - 41.2 °F 34% 29.72 in 10.0 mi ESE 3.5 mph - N/A   Clear
3:55 PM 71.4 °F - 41.0 °F 33% 29.72 in 10.0 mi ESE 4.6 mph - N/A   Clear
4:15 PM 71.8 °F - 41.7 °F 34% 29.71 in 10.0 mi Calm Calm - N/A   Clear
4:35 PM 71.8 °F - 41.0 °F 33% 29.71 in 10.0 mi NE 5.8 mph - N/A   Clear
4:55 PM 71.8 °F - 41.9 °F 34% 29.71 in 10.0 mi NE 3.5 mph - N/A   Clear
5:15 PM 72.0 °F - 44.2 °F 37% 29.71 in 10.0 mi NE 11.5 mph - N/A   Clear
5:35 PM 70.7 °F - 44.8 °F 39% 29.71 in 10.0 mi NE 11.5 mph - N/A   Clear
5:55 PM 69.1 °F - 45.1 °F 42% 29.71 in 10.0 mi NE 13.8 mph - N/A   Clear
6:15 PM 68.0 °F - 46.0 °F 45% 29.71 in 10.0 mi NE 12.7 mph - N/A   Clear
6:35 PM 64.6 °F - 50.2 °F 60% 29.72 in 10.0 mi ENE 12.7 mph 18.4 mph N/A   Clear
6:55 PM 62.6 °F - 50.0 °F 63% 29.72 in 10.0 mi ENE 11.5 mph - N/A   Clear
7:15 PM 60.1 °F - 50.0 °F 69% 29.72 in 10.0 mi ENE 10.4 mph - N/A   Clear
7:35 PM 57.0 °F - 49.3 °F 75% 29.72 in 10.0 mi ENE 9.2 mph - N/A   Clear
7:55 PM 54.7 °F - 48.0 °F 78% 29.74 in 10.0 mi NE 6.9 mph - N/A   Clear
8:15 PM 52.7 °F - 47.1 °F 81% 29.76 in 10.0 mi NNE 11.5 mph - N/A   Clear
8:35 PM 51.8 °F - 47.3 °F 85% 29.79 in 10.0 mi North 11.5 mph - N/A   Clear
8:55 PM 51.4 °F - 46.9 °F 85% 29.80 in 10.0 mi North 11.5 mph - N/A   Clear
9:15 PM 52.0 °F - 45.1 °F 77% 29.80 in 10.0 mi NNE 15.0 mph - N/A   Clear
9:35 PM 50.2 °F - 44.4 °F 81% 29.81 in 10.0 mi North 13.8 mph - N/A   Clear
9:55 PM 48.7 °F - 43.3 °F 82% 29.82 in 10.0 mi North 13.8 mph - N/A   Clear
10:15 PM 47.7 °F - 42.3 °F 82% 29.83 in 10.0 mi North 15.0 mph - N/A   Clear
10:35 PM 46.4 °F 40.1 °F 41.2 °F 82% 29.85 in 10.0 mi North 15.0 mph 20.7 mph N/A   Clear
10:55 PM 46.0 °F 38.5 °F 40.1 °F 80% 29.86 in 10.0 mi North 19.6 mph 25.3 mph N/A   Clear
11:15 PM 44.8 °F 37.7 °F 39.6 °F 82% 29.86 in 7.0 mi North 16.1 mph - N/A   Clear
11:35 PM 43.7 °F 36.3 °F 39.2 °F 84% 29.86 in 7.0 mi North 16.1 mph - N/A   Clear
11:55 PM 43.0 °F 35.4 °F 38.7 °F 85% 29.86 in 7.0 mi North 16.1 mph - N/A   Clear